Location: Newark
(58.9986°N, 38.5006°E)
Time: 18:15:55
(UTC+00:00)

Transit 2A Rocket - All Passes

Search period start: 19 April 2021 00:00
Search period end: 29 April 2021 00:00
Orbit: 594 x 908 km, 66.7° (Epoch: 19 April)

Date Brightness Start Highest point End Pass type
(mag) Time Alt. Az. Time Alt. Az. Time Alt. Az.
19 Apr - 13:18:26 10° SSW 13:22:34 40° SE 13:26:37 10° ENE daylight
19 Apr - 15:00:42 10° WSW 15:05:00 56° NNW 15:09:18 10° NE daylight
19 Apr - 16:44:23 10° WNW 16:48:16 31° N 16:52:11 10° ENE daylight
19 Apr - 18:27:42 10° NW 18:31:44 36° NNE 18:35:54 10° E visible
19 Apr - 20:10:19 10° NW 20:14:42 89° SSW 20:19:19 10° SE visible
19 Apr - 21:53:18 10° WNW 21:56:47 23° WSW 22:00:23 10° S visible
20 Apr - 12:36:25 10° S 12:40:08 27° ESE 12:43:47 10° ENE daylight
20 Apr - 14:17:56 10° SW 14:22:18 76° NW 14:26:40 10° NE daylight
20 Apr - 16:01:26 10° W 16:05:23 34° NNW 16:09:23 10° NE daylight
20 Apr - 17:44:58 10° NW 17:48:53 32° NNE 17:52:55 10° ENE visible
20 Apr - 19:27:41 10° NW 19:32:03 67° NE 19:36:36 10° ESE visible
20 Apr - 21:10:24 10° WNW 21:14:22 33° WSW 21:18:33 10° S visible
21 Apr - 11:54:49 10° SSE 11:57:47 18° ESE 12:00:43 10° ENE daylight
21 Apr - 13:35:18 10° SW 13:39:41 77° SE 13:44:01 10° NE daylight
21 Apr - 15:18:27 10° W 15:22:33 39° NNW 15:26:39 10° NE daylight
21 Apr - 17:02:08 10° WNW 17:06:00 30° N 17:09:56 10° ENE daylight
21 Apr - 18:45:03 10° NW 18:49:19 51° NNE 18:53:45 10° ESE visible
21 Apr - 20:27:38 10° NW 20:31:54 49° SW 20:36:23 10° SSE visible
21 Apr - 22:12:07 10° W 22:13:31 11° WSW 22:14:57 10° SW visible
22 Apr - 11:14:06 10° SE 11:15:32 11° ESE 11:16:57 10° E daylight
22 Apr - 12:52:52 10° SSW 12:57:08 52° SE 13:01:21 10° NE daylight
22 Apr - 14:35:32 10° WSW 14:39:45 48° NNW 14:43:58 10° NE daylight
22 Apr - 16:19:15 10° WNW 16:23:06 30° N 16:27:01 10° ENE daylight
22 Apr - 18:02:24 10° NW 18:06:32 41° NNE 18:10:49 10° E visible
22 Apr - 19:44:58 10° NW 19:49:21 72° SW 19:53:59 10° SE visible
22 Apr - 21:28:16 10° WNW 21:31:15 18° WSW 21:34:21 10° SSW visible
23 Apr - 12:10:40 10° S 12:14:39 35° SE 12:18:36 10° ENE daylight
23 Apr - 13:52:41 10° WSW 13:57:00 63° NW 14:01:20 10° NE daylight
23 Apr - 15:36:19 10° WNW 15:40:12 32° N 15:44:10 10° NE daylight
23 Apr - 17:19:41 10° NW 17:23:42 35° NNE 17:27:50 10° E daylight
23 Apr - 19:02:20 10° NW 19:06:44 81° NE 19:11:22 10° SE visible
23 Apr - 20:45:12 10° WNW 20:48:54 26° WSW 20:52:48 10° S visible
24 Apr - 11:28:46 10° S 11:32:15 23° ESE 11:35:41 10° ENE daylight
24 Apr - 13:09:58 10° SW 13:14:20 86° NW 13:18:41 10° NE daylight
24 Apr - 14:53:20 10° W 14:57:20 35° NNW 15:01:23 10° NE daylight
24 Apr - 16:36:55 10° NW 16:40:50 31° N 16:44:50 10° ENE daylight
24 Apr - 18:19:42 10° NW 18:24:03 60° NNE 18:28:36 10° ESE visible
24 Apr - 20:02:21 10° WNW 20:06:28 39° SW 20:10:49 10° SSE visible
25 Apr - 10:47:23 10° SSE 10:49:57 15° ESE 10:52:29 10° ENE daylight
25 Apr - 12:27:23 10° SW 12:31:44 67° SE 12:36:02 10° NE daylight
25 Apr - 14:10:23 10° W 14:14:30 41° NNW 14:18:40 10° NE daylight
25 Apr - 15:54:05 10° WNW 15:57:56 30° N 16:01:52 10° ENE daylight
25 Apr - 17:37:04 10° NW 17:41:18 47° NNE 17:45:43 10° ESE daylight
25 Apr - 19:19:38 10° NW 19:23:58 57° SW 19:28:33 10° SSE visible
25 Apr - 21:03:30 10° W 21:05:42 14° WSW 21:07:59 10° SW visible
26 Apr - 11:45:02 10° SSW 11:49:12 45° SE 11:53:20 10° NE daylight
26 Apr - 13:27:28 10° WSW 13:31:44 52° NNW 13:36:00 10° NE daylight
26 Apr - 15:11:10 10° WNW 15:15:02 30° N 15:18:59 10° ENE daylight
26 Apr - 16:54:24 10° NW 16:58:30 38° NNE 17:02:45 10° E daylight
26 Apr - 18:36:59 10° NW 18:41:24 82° SW 18:46:04 10° SE visible
26 Apr - 20:20:05 10° WNW 20:23:24 21° WSW 20:26:52 10° SSW visible
27 Apr - 11:02:56 10° S 11:06:46 30° ESE 11:10:33 10° ENE daylight
27 Apr - 12:44:40 10° WSW 12:49:00 70° NW 12:53:21 10° NE daylight
27 Apr - 14:28:13 10° WNW 14:32:09 33° NNW 14:36:09 10° NE daylight
27 Apr - 16:11:40 10° NW 16:15:38 33° NNE 16:19:45 10° E daylight
27 Apr - 17:54:21 10° NW 17:58:45 73° NE 18:03:23 10° ESE visible
27 Apr - 19:37:07 10° WNW 19:41:01 30° WSW 19:45:08 10° S visible
28 Apr - 10:21:12 10° SSE 10:24:24 20° ESE 10:27:34 10° ENE daylight
28 Apr - 12:02:00 10° SW 12:06:22 85° SE 12:10:43 10° NE daylight
28 Apr - 13:45:15 10° W 13:49:17 37° NNW 13:53:23 10° NE daylight
28 Apr - 15:28:52 10° WNW 15:32:45 31° N 15:36:46 10° ENE daylight
28 Apr - 17:11:43 10° NW 17:16:02 55° NNE 17:20:34 10° ESE daylight
28 Apr - 18:54:20 10° NW 18:58:34 45° SW 19:03:03 10° SSE visible
28 Apr - 20:40:03 10° WSW 20:40:07 10° WSW 20:40:12 10° WSW visible
